MARSHFIELD, MA current weather conditions

sailwx.info

Wind from 140 at 6 knots

Air temperature -4.0° C
Visibility: greater than 8.7 NM
Dewpoint -11.0° C

Last reported at 2015-Mar-06 20:35 UTC.
Time now 2015-Mar-06 21:38 UTC

Location: N 42°06' W 070°40'.
View on Google Maps.

See reports from other nearby stations

  
Tides and Currents Weather Stations Pressure Air Temp Water Temp Dewpoint Dewpoint Depression Visibility Wind Speed Wind Dir Waves Ship Positions
date/time (UTC)wind fromknots sea level pressurealtimeterstation pressurevisibilityair tempwater tempwave heightnotes
2015-Mar-06 20:35 140 6 8.7-4.0
2015-Mar-06 20:15 120 6 8.7-4.0
2015-Mar-06 19:55 120 6 8.7-4.0
2015-Mar-06 19:35 150 5 8.7-4.0
2015-Mar-06 19:15 100 6 8.7-4.0
2015-Mar-06 18:55 050 7 8.7-3.0
2015-Mar-06 18:35 060 5 8.7-5.0
2015-Mar-06 18:15 070 5 8.7-5.0
2015-Mar-06 17:55 070 8 8.7-5.0
2015-Mar-06 17:35 030 5 8.7-5.0
2015-Mar-06 17:15 050 6 8.7-5.0
2015-Mar-06 16:55 8.7-5.0
2015-Mar-06 16:35 360 6 8.7-6.0
2015-Mar-06 16:15 360 6 8.7-6.0
2015-Mar-06 15:55 360 6 8.7-6.0
2015-Mar-06 15:35 340 6 8.7-6.0
2015-Mar-06 15:15 360 7 8.7-6.0
2015-Mar-06 14:55 340 5 8.7-6.0
2015-Mar-06 14:35 310 6 7.8-7.0
2015-Mar-06 14:15 340 5 8.7-7.0
2015-Mar-06 13:55 310 6 8.7-7.0
2015-Mar-06 13:35 320 8 8.7-7.0
2015-Mar-06 13:15 330 6 8.7-8.0
2015-Mar-06 12:55 320 7 8.7-8.0
2015-Mar-06 12:35 310 7 8.7-8.0
2015-Mar-06 12:15 320 7 8.7-9.0
2015-Mar-06 11:55 300 5 8.7-10.0
2015-Mar-06 11:35 300 5 8.7-10.0
2015-Mar-06 11:15 320 7 8.7-10.0
2015-Mar-06 10:55 310 8 8.7-10.0
2015-Mar-06 10:35 320 7 8.7-10.0
2015-Mar-06 10:15 320 7 gusting 14 8.7-10.0
2015-Mar-06 09:55 320 8 gusting 17 8.7-10.0
2015-Mar-06 09:35 320 8 gusting 14 8.7-10.0
2015-Mar-06 09:15 320 7 gusting 14 8.7-10.0
2015-Mar-06 08:55 320 7 gusting 14 8.7-10.0
2015-Mar-06 08:35 320 9 gusting 15 8.7-9.0
2015-Mar-06 08:15 330 9 gusting 16 8.7-9.0
2015-Mar-06 07:55 320 10 gusting 17 8.7-9.0
2015-Mar-06 07:35 320 5 8.7-8.0
2015-Mar-06 07:15 330 10 gusting 18 8.7-8.0
2015-Mar-06 06:55 330 10 gusting 20 8.7-7.0
2015-Mar-06 06:35 320 9 gusting 20 8.7-7.0
2015-Mar-06 06:15 330 10 gusting 20 8.7-7.0
2015-Mar-06 05:55 330 11 gusting 19 8.7-7.0
2015-Mar-06 05:35 330 6 gusting 20 8.7-6.0
2015-Mar-06 05:15 320 9 gusting 19 8.7-6.0
2015-Mar-06 04:55 320 10 gusting 16 8.7-6.0
2015-Mar-06 04:35 320 12 gusting 23 8.7-6.0
2015-Mar-06 04:15 330 10 gusting 20 8.7-5.0
2015-Mar-06 03:55 330 9 gusting 18 8.7-5.0
2015-Mar-06 03:35 330 8 gusting 20 8.7-5.0
2015-Mar-06 03:15 320 10 gusting 15 8.7-5.0
2015-Mar-06 02:55 320 10 gusting 19 8.7-5.0
2015-Mar-06 02:35 320 7 gusting 18 8.7-5.0
2015-Mar-06 02:15 320 10 gusting 15 8.7-5.0
2015-Mar-06 01:55 330 10 gusting 19 8.7-5.0
2015-Mar-06 01:35 320 7 gusting 19 8.7-4.0
2015-Mar-06 01:15 320 10 gusting 14 8.7-4.0
2015-Mar-06 00:55 320 9 gusting 18 8.7-4.0
2015-Mar-06 00:35 340 7 8.7-3.0
2015-Mar-06 00:15 330 6 8.7-3.0
2015-Mar-05 23:55 330 6 8.7-3.0
2015-Mar-05 23:35 320 6 8.7-3.0
2015-Mar-05 23:15 310 4 8.7-3.0
2015-Mar-05 22:55 280 3 8.7-3.0
2015-Mar-05 22:35 8.7-3.0
2015-Mar-05 22:15 280 3 8.7-3.0
2015-Mar-05 21:55 8.7-3.0
2015-Mar-05 21:35 300 5 8.7-3.0
2015-Mar-05 21:15 320 5 8.7-3.0
2015-Mar-05 20:55 340 8 8.7-3.0
2015-Mar-05 20:35 330 6 8.7-2.0
2015-Mar-05 20:15 100 3 8.7-2.0
2015-Mar-05 19:55 4.3-3.0 Mist.
2015-Mar-05 19:35 180 5 2.6-3.0 Mist.
2015-Mar-05 19:15 190 3 0.9-3.0 Light snow.
2015-Mar-05 18:55 230 3 0.7-3.0 Light snow.
2015-Mar-05 18:35 310 5 0.9-2.0 Light snow.
2015-Mar-05 18:15 300 3 1.7-2.0 Haze.
2015-Mar-05 17:55 310 8 3.5-2.0 Haze.
2015-Mar-05 17:35 260 4 1.7-2.0 Haze.
2015-Mar-05 17:15 330 4 1.3-2.0 Light snow.
2015-Mar-05 15:55 280 5 7.8-1.0
2015-Mar-05 15:35 310 6 7.8-1.0
2015-Mar-05 15:15 310 5 8.7-0.0
2015-Mar-05 14:55 2.2-0.0 Mist.
2015-Mar-05 14:35 280 4 1.3-0.0 Precipitation.
2015-Mar-05 14:15 260 3 3.5-0.0 Mist.
2015-Mar-05 13:55 3.5-0.0 Mist.
2015-Mar-05 13:35 330 6 1.1-0.0 Light snow.
2015-Mar-05 13:15 340 5 0.9-0.0 Light snow.
2015-Mar-05 12:55 340 6 0.4-0.0 Light snow.
2015-Mar-05 12:35 330 6 0.4-0.0 Light snow.
2015-Mar-05 12:15 340 7 0.7-0.0 Light snow.
2015-Mar-05 11:55 330 5 0.7-0.0 Light snow.
2015-Mar-05 11:35 310 4 0.7-0.0 Light snow.
2015-Mar-05 11:15 320 4 2.6 1.0 Mist.
2015-Mar-05 10:55 300 6 1.3 1.0 Light snow.
2015-Mar-05 10:35 7.0 1.0
2015-Mar-05 10:15 310 5 2.2 1.0 Precipitation.
2015-Mar-05 09:55 270 7 2.6 1.0 Mist.
2015-Mar-05 09:35 190 3 2.6 1.0 Mist.
2015-Mar-05 09:15 1.1 1.0 Light snow.
2015-Mar-05 08:55 1.1 1.0 Light snow.
2015-Mar-05 08:35 270 3 1.7 1.0 Precipitation.
2015-Mar-05 08:15 2.2 1.0 Mist.
2015-Mar-05 07:55 310 5 2.6 2.0 Precipitation.
2015-Mar-05 07:35 310 6 4.3 3.0 Precipitation.
2015-Mar-05 07:15 270 3 4.3 3.0 Mist.
2015-Mar-05 06:55 4.3 3.0 Mist.
2015-Mar-05 06:35 6.1 3.0
2015-Mar-05 06:15 230 3 8.7 3.0
2015-Mar-05 05:55 8.7 3.0
2015-Mar-05 05:35 220 3 8.7 3.0
2015-Mar-05 05:15 240 3 8.7 3.0
2015-Mar-05 04:55 8.7 3.0
2015-Mar-05 04:35 8.7 3.0
2015-Mar-05 04:15 8.7 3.0
2015-Mar-05 03:55 8.7 3.0
2015-Mar-05 03:35 8.7 3.0
2015-Mar-05 03:15 220 3 8.7 3.0
2015-Mar-05 02:55 8.7 3.0
2015-Mar-05 02:35 220 3 8.7 3.0
2015-Mar-05 02:15 7.8 4.0
2015-Mar-05 01:55 260 3 8.7 4.0
2015-Mar-05 01:35 230 4 8.7 4.0
2015-Mar-05 01:15 220 5 8.7 4.0
2015-Mar-05 00:55 220 5 8.7 4.0
2015-Mar-05 00:35 230 4 8.7 5.0
2015-Mar-05 00:15 240 4 8.7 5.0
2015-Mar-04 23:55 230 5 8.7 5.0
2015-Mar-04 23:35 240 5 8.7 5.0
2015-Mar-04 23:15 240 3 8.7 5.0
2015-Mar-04 22:55 230 5 8.7 5.0
2015-Mar-04 22:35 240 6 8.7 6.0
2015-Mar-04 22:15 240 5 8.7 6.0
2015-Mar-04 21:55 240 5 8.7 6.0
2015-Mar-04 21:35 250 4 8.7 6.0
2015-Mar-04 21:15 240 5 8.7 6.0